[[{"header":{"parameterUnit":"m.s-1","parameterCategory":1,"la1":30.2991,"la2":30.254,"lo1":-89.0895,"lo2":-89.0444,"dy":0.0017,"dx":0.0017,"nx":28,"ny":28,"refTime":"2025-05-27T21:00:00:Z","depth":0,"parameterNumber":2,"parameterNumberName":"U-component_of_WINDS"},"data":[0,0,0,0,0,0,0,0,0,0,0,0,0,0,0,0,0,0,0,0,0,0,0,0,0,0,0,0,0,0,0,0,0,0,0,0,0,0,0,0,0,0,0,0,0,0,0,0,0,0,0,0,0,0,0,0,0,0,-0.51,-0.5101,0,-0.5191,-0.5192,-0.5193,-0.5277,-0.5278,-0.5279,-0.528,-0.5369,-0.537,-0.5371,0,0,0,0,0,0,0,0,0,0,0,0,0,-0.4996,-0.4998,-0.51,-0.5101,-0.5102,-0.5191,-0.5192,-0.5193,-0.5276,-0.5278,-0.5279,-0.528,-0.5368,-0.537,-0.5371,0,0,0,0,0,0,0,0,0,0,0,0,0,-0.5059,-0.4998,-0.51,-0.5155,-0.5161,-0.519,-0.5192,-0.5193,-0.5276,-0.5278,-0.5279,-0.5281,-0.5368,-0.537,-0.5372,-0.5353,0,0,-0.5378,-0.5379,0,0,0,0,0,0,0,0,-0.5056,-0.5063,-0.5146,-0.5151,-0.5158,-0.5224,-0.5188,-0.5247,-0.5276,-0.5232,-0.528,-0.5282,-0.5319,-0.5325,-0.5339,-0.5358,-0.5361,-0.5378,-0.538,-0.538,-0.5381,0,0,0,0,0,0,0,-0.5051,-0.5059,-0.5136,-0.5147,-0.5154,-0.5174,-0.5184,-0.5199,-0.5266,-0.5236,-0.5242,-0.5252,-0.5323,-0.5336,-0.5341,-0.5363,-0.5378,-0.538,-0.5381,-0.5382,-0.5371,-0.537,0,0,0,0,0,0,-0.5039,-0.5055,-0.5133,-0.5139,-0.5109,-0.5174,-0.5186,-0.5201,-0.5266,-0.5277,-0.5251,-0.5256,-0.5332,-0.5339,-0.5345,-0.5328,-0.538,-0.5382,-0.5384,-0.5373,-0.5371,-0.5369,0,0,0,0,0,0,-0.5036,-0.5045,-0.5129,-0.5099,-0.5111,-0.5174,-0.519,-0.5202,-0.5216,-0.5277,-0.5289,-0.5253,-0.5334,-0.5342,-0.5351,-0.5332,-0.5383,-0.5385,-0.5375,-0.5372,-0.537,-0.5293,0,0,0,0,0,0,-0.5033,-0.5043,-0.5038,-0.5098,-0.5112,-0.5135,-0.5189,-0.5203,-0.522,-0.5227,-0.5282,-0.5293,-0.5335,-0.5347,-0.5353,-0.5336,-0.5387,-0.5377,-0.5374,-0.5371,-0.5297,-0.5288,-0.528,0,0,0,0,0,-0.5029,-0.5012,-0.5037,-0.5046,-0.5107,-0.5134,-0.5142,-0.5192,-0.5218,-0.5213,-0.5252,-0.5291,-0.5333,-0.5348,-0.5355,-0.5338,-0.5378,-0.5374,-0.5371,-0.5301,-0.529,-0.5281,0,0,0,0,0,0,-0.4946,-0.5021,-0.505,-0.5052,-0.5086,-0.5148,-0.5142,-0.5179,-0.5205,-0.5211,-0.5272,-0.5283,-0.5285,-0.5313,-0.5327,-0.5323,-0.5361,-0.5359,-0.5305,-0.5295,-0.5287,-0.528,-0.5389,0,0,0,0,0,-0.4929,-0.4945,-0.5009,-0.5004,-0.502,-0.5078,-0.5091,-0.5128,-0.5165,-0.5179,-0.5219,-0.5253,-0.5274,-0.5286,-0.5309,-0.5302,-0.5315,-0.5294,-0.5285,-0.5278,-0.5275,-0.5273,-0.5264,-0.5358,-0.5358,-0.5358,0,0,-0.4892,-0.4935,-0.4941,-0.4989,-0.502,-0.5034,-0.509,-0.5103,-0.5114,-0.5181,-0.5192,-0.5223,-0.5264,-0.5265,-0.5267,-0.5288,-0.5252,-0.5273,-0.5267,-0.5268,-0.5268,-0.5259,-0.5251,-0.5355,-0.5356,-0.5356,0,0,-0.4832,-0.4866,-0.4867,-0.4896,-0.4943,-0.4981,-0.4981,-0.5038,-0.5061,-0.5073,-0.5124,-0.5138,-0.5173,-0.52,-0.5219,-0.517,-0.5206,-0.5175,-0.513,-0.5127,-0.512,-0.5114,-0.5096,-0.5088,-0.5172,-0.5172,-0.5172,0,-0.478,-0.4806,-0.4862,-0.4872,-0.4891,-0.4954,-0.4954,-0.498,-0.503,-0.5042,-0.5064,-0.511,-0.5142,-0.515,-0.5138,-0.5151,-0.5152,-0.5169,-0.5117,-0.5111,-0.5106,-0.5089,-0.5082,-0.5168,-0.5168,-0.5169,-0.5169,0,-0.4739,-0.4756,-0.475,-0.4799,-0.4817,-0.4822,-0.4878,-0.489,-0.4925,-0.4961,-0.4972,-0.5013,-0.5045,-0.505,-0.5084,-0.5063,-0.5074,-0.5106,-0.5145,-0.5092,-0.5077,-0.5071,-0.5162,-0.5163,-0.5165,-0.5166,0,0,-0.463,-0.471,-0.4706,-0.4729,-0.4785,-0.4798,-0.4806,-0.4838,-0.4847,-0.488,-0.4887,-0.4915,-0.4945,-0.4966,-0.5003,-0.5001,-0.4959,-0.5033,-0.5035,-0.5017,-0.4937,-0.4913,-0.4904,-0.4984,-0.4983,-0.4982,-0.4934,0,-0.4579,-0.4597,-0.4648,-0.465,-0.4666,-0.4726,-0.4732,-0.4766,-0.48,-0.4817,-0.4854,-0.4873,-0.4912,-0.4925,-0.4925,-0.4964,-0.4943,-0.4968,-0.499,-0.499,-0.4977,-0.4897,-0.4871,-0.4823,-0.4928,-0.4928,-0.4927,0,-0.4522,-0.4552,-0.4556,-0.4611,-0.4619,-0.4624,-0.4658,-0.4674,-0.4714,-0.4739,-0.4762,-0.4804,-0.4814,-0.485,-0.4865,-0.488,-0.4892,-0.4912,-0.4912,-0.4915,-0.4954,-0.4897,-0.4809,-0.4802,-0.4919,-0.4919,-0.492,0,-0.4441,-0.4482,-0.449,-0.4507,-0.4572,-0.4574,-0.46,-0.4642,-0.4658,-0.4688,-0.4699,-0.4728,-0.4744,-0.4765,-0.4813,-0.4836,-0.4822,-0.4863,-0.4841,-0.484,-0.4835,-0.4834,-0.4747,-0.4844,-0.4844,-0.4844,-0.4844,0,-0.4378,-0.4378,-0.4454,-0.4459,-0.446,-0.4518,-0.4518,-0.455,-0.4586,-0.4597,-0.4651,-0.466,-0.4724,-0.474,-0.4777,-0.4783,-0.479,-0.4809,-0.4819,-0.4804,-0.4801,-0.4812,-0.4816,-0.4842,-0.4843,-0.4843,-0.4843,0,-0.4287,-0.4339,-0.4351,-0.4411,-0.4426,-0.4425,-0.4476,-0.4482,-0.4519,-0.4533,-0.4539,-0.4597,-0.4619,-0.4669,-0.4704,-0.4729,-0.4725,-0.4743,-0.4712,-0.4718,-0.4694,-0.4695,-0.4609,-0.46,-0.4703,-0.4702,-0.4701,0,-0.4244,-0.4245,-0.4306,-0.4318,-0.4343,-0.4361,-0.4378,-0.4435,-0.4451,-0.4496,-0.4496,-0.4523,-0.4547,-0.4578,-0.4623,-0.465,-0.4669,-0.4637,-0.4673,-0.4658,-0.4667,-0.4666,-0.4666,-0.4628,-0.4627,-0.4626,-0.4625,0,-0.4161,-0.4186,-0.421,-0.4241,-0.4261,-0.4288,-0.4319,-0.4325,-0.4389,-0.4403,-0.4427,-0.4446,-0.4482,-0.4507,-0.454,-0.4567,-0.4606,-0.4613,-0.461,-0.4594,-0.4575,-0.4584,-0.4689,-0.4615,-0.4616,-0.4617,-0.4617,-0.4618,-0.4092,-0.4096,-0.414,-0.4163,-0.4193,-0.422,-0.4229,-0.4267,-0.4288,-0.4323,-0.4355,-0.4375,-0.4414,-0.4464,-0.4488,-0.4503,-0.4523,-0.4518,-0.4517,-0.4514,-0.4507,-0.4573,-0.451,-0.451,-0.4511,-0.4511,-0.4511,0,-0.4011,-0.4042,-0.4064,-0.4105,-0.4124,-0.4161,-0.4196,-0.4209,-0.4226,-0.426,-0.4283,-0.4309,-0.4334,-0.438,-0.4409,-0.4412,-0.4431,-0.4418,-0.4418,-0.4423,-0.4488,-0.4488,-0.4402,-0.4402,-0.4402,-0.4402,-0.4402,-0.4402,-0.3972,-0.398,-0.401,-0.4033,-0.4064,-0.4085,-0.4102,-0.4127,-0.4155,-0.4182,-0.4203,-0.4234,-0.4273,-0.4305,-0.4328,-0.4341,-0.4349,-0.4329,-0.4348,-0.4408,-0.4418,-0.4428,-0.4428,-0.4331,-0.4331,-0.4281,-0.4281,-0.428]},{"header":{"parameterUnit":"m.s-1","parameterCategory":1,"la1":30.2991,"la2":30.254,"lo1":-89.0895,"lo2":-89.0444,"dy":0.0017,"dx":0.0017,"nx":28,"ny":28,"refTime":"2025-05-27T21:00:00:Z","depth":0,"parameterNumber":3,"parameterNumberName":"V-component_of_WINDS"},"data":[0,0,0,0,0,0,0,0,0,0,0,0,0,0,0,0,0,0,0,0,0,0,0,0,0,0,0,0,0,0,0,0,0,0,0,0,0,0,0,0,0,0,0,0,0,0,0,0,0,0,0,0,0,0,0,0,0,0,8.3324,8.3324,0,8.3327,8.3327,8.3327,8.3252,8.325,8.3248,8.3247,8.3247,8.3249,8.3251,0,0,0,0,0,0,0,0,0,0,0,0,0,8.3253,8.3254,8.3324,8.3324,8.3324,8.3327,8.3327,8.3327,8.3253,8.325,8.3248,8.3246,8.3247,8.3249,8.3251,0,0,0,0,0,0,0,0,0,0,0,0,0,8.3272,8.3255,8.3324,8.3287,8.3284,8.3327,8.3327,8.3327,8.3253,8.325,8.3247,8.3244,8.3246,8.3249,8.3252,8.3329,0,0,8.326,8.3262,0,0,0,0,0,0,0,0,8.3271,8.3275,8.3293,8.329,8.3287,8.3286,8.3302,8.3328,8.3254,8.3265,8.3246,8.3243,8.3263,8.3264,8.3271,8.3329,8.3329,8.3261,8.3262,8.3263,8.3264,0,0,0,0,0,0,0,8.327,8.3275,8.3325,8.3293,8.3289,8.3271,8.327,8.3307,8.3281,8.3264,8.3258,8.326,8.326,8.3269,8.3271,8.3329,8.326,8.3263,8.3265,8.3266,8.3452,8.3455,0,0,0,0,0,0,8.3274,8.3274,8.3325,8.3325,8.3272,8.3274,8.3274,8.3289,8.328,8.3276,8.3262,8.3256,8.3265,8.3267,8.327,8.336,8.3263,8.3266,8.3268,8.3449,8.3453,8.3456,0,0,0,0,0,0,8.3273,8.3279,8.3325,8.3298,8.3303,8.3279,8.3297,8.3291,8.3299,8.3279,8.3274,8.3276,8.3263,8.3266,8.3315,8.3359,8.3267,8.327,8.3445,8.345,8.3454,8.3541,0,0,0,0,0,0,8.3271,8.3279,8.3308,8.33,8.3304,8.337,8.33,8.3293,8.3304,8.3297,8.329,8.3286,8.3261,8.3312,8.3318,8.3361,8.3272,8.3441,8.3447,8.3453,8.3534,8.3548,8.356,0,0,0,0,0,8.3269,8.3332,8.331,8.3317,8.3341,8.3373,8.3376,8.3346,8.3308,8.3337,8.3325,8.3286,8.3354,8.3317,8.3324,8.3369,8.3438,8.3445,8.3452,8.3528,8.3545,8.356,0,0,0,0,0,0,8.3345,8.333,8.3306,8.3368,8.3373,8.336,8.3396,8.3365,8.338,8.3372,8.3334,8.3333,8.3388,8.3384,8.3343,8.3444,8.3389,8.3398,8.3444,8.346,8.3473,8.3472,8.3275,0,0,0,0,0,8.3369,8.3398,8.3383,8.3439,8.3443,8.342,8.3433,8.341,8.3413,8.3414,8.3405,8.3408,8.343,8.3445,8.3465,8.3534,8.3531,8.3568,8.3581,8.3592,8.3599,8.3636,8.3652,8.348,8.348,8.348,0,0,8.3419,8.3415,8.3434,8.3455,8.3455,8.3485,8.3421,8.3455,8.3477,8.3419,8.3464,8.3458,8.346,8.352,8.3545,8.3517,8.3647,8.3601,8.361,8.3611,8.3645,8.3661,8.3675,8.3485,8.3484,8.3483,0,0,8.3524,8.3525,8.3571,8.3575,8.3577,8.3562,8.3574,8.3567,8.3561,8.3607,8.3564,8.3589,8.3628,8.3631,8.3638,8.3748,8.3713,8.3756,8.3823,8.3859,8.3872,8.3884,8.3922,8.3936,8.3764,8.3764,8.3764,0,8.3585,8.3629,8.3599,8.3637,8.3647,8.3598,8.3645,8.3649,8.3658,8.3666,8.3635,8.3684,8.3681,8.3741,8.3768,8.3776,8.3787,8.3755,8.3873,8.3884,8.3895,8.3931,8.3945,8.3769,8.3769,8.3768,8.3768,0,8.3704,8.3735,8.3773,8.3784,8.3799,8.3841,8.3817,8.3836,8.3813,8.3801,8.3848,8.3845,8.3862,8.3876,8.3853,8.3932,8.3915,8.388,8.3823,8.3917,8.395,8.3963,8.3776,8.3775,8.3773,8.3772,0,0,8.3853,8.385,8.3864,8.3869,8.387,8.3893,8.3934,8.3953,8.3969,8.3978,8.401,8.4046,8.4014,8.4021,8.3999,8.4031,8.4118,8.3991,8.3991,8.4014,8.4204,8.4229,8.4246,8.4096,8.4099,8.4101,8.4204,0,8.3954,8.4023,8.3999,8.4069,8.4098,8.4054,8.4089,8.4094,8.4085,8.4107,8.4096,8.4122,8.4078,8.4082,8.4112,8.4101,8.4155,8.4094,8.4124,8.4126,8.4123,8.4263,8.4289,8.4386,8.4217,8.4219,8.422,0,8.408,8.4096,8.417,8.4167,8.4178,8.4211,8.4226,8.4249,8.4254,8.4245,8.4256,8.4227,8.4266,8.4214,8.4267,8.4225,8.4237,8.4234,8.4237,8.4236,8.4177,8.4264,8.4417,8.4431,8.4241,8.4239,8.4238,0,8.418,8.422,8.4269,8.4275,8.4274,8.4298,8.4298,8.43,8.4314,8.4328,8.4336,8.4355,8.4364,8.4379,8.4357,8.432,8.4413,8.4358,8.4406,8.4406,8.4424,8.4423,8.4578,8.4437,8.4436,8.4436,8.4436,0,8.4294,8.434,8.4314,8.4344,8.4395,8.4368,8.4419,8.4414,8.4417,8.4445,8.4409,8.4436,8.4406,8.443,8.4413,8.4459,8.4464,8.4457,8.4452,8.4459,8.446,8.4464,8.4456,8.444,8.4439,8.4438,8.4438,0,8.4412,8.4397,8.4447,8.4444,8.4444,8.4482,8.4478,8.4505,8.4495,8.4531,8.4538,8.4521,8.4548,8.4529,8.4555,8.4543,8.4604,8.459,8.4602,8.4598,8.4646,8.4641,8.4807,8.4827,8.4675,8.4676,8.4678,0,8.4484,8.4519,8.452,8.4537,8.4541,8.4569,8.4583,8.4558,8.4574,8.4584,8.461,8.4635,8.4652,8.4698,8.4687,8.4707,8.4692,8.4749,8.4695,8.4701,8.4691,8.4688,8.4691,8.4759,8.4761,8.4763,8.4764,0,8.4614,8.4605,8.4627,8.4648,8.4667,8.4681,8.4693,8.4709,8.4684,8.4704,8.4732,8.4746,8.4774,8.4798,8.4816,8.4815,8.4785,8.4782,8.4793,8.48,8.4805,8.4801,8.463,8.4777,8.4776,8.4775,8.4774,8.4774,8.4709,8.4739,8.4745,8.4771,8.4778,8.4791,8.4816,8.4811,8.4834,8.4855,8.484,8.4873,8.4879,8.4899,8.4903,8.4928,8.4904,8.4921,8.4925,8.4929,8.4935,8.4804,8.4931,8.4931,8.493,8.493,8.493,0,8.4835,8.4838,8.4863,8.4881,8.4903,8.4876,8.4888,8.4907,8.4937,8.4945,8.4964,8.4997,8.5021,8.5014,8.5035,8.5057,8.5044,8.5063,8.506,8.506,8.4956,8.4943,8.5074,8.5073,8.5073,8.5073,8.5073,8.5073,8.4903,8.4951,8.4944,8.4995,8.4997,8.5031,8.504,8.5051,8.5058,8.5096,8.5116,8.5113,8.5115,8.5137,8.5157,8.5155,8.5163,8.5187,8.518,8.5082,8.5067,8.5054,8.5041,8.519,8.519,8.5281,8.5282,8.5283]}]]